Dewpoint
55 56 58 57 57 59 59 59 60 61 61 59 58 58 59 60 61 62 64 62 61 62 61 60 59 61 58 57 55 55 53 52 49 51 54 56 57 59 59 60 63 65 64
51 52 55 55 56 58 58 58 59 58 57 55 55 54 54 54 57 59 59 58 59 59 59 59 58 56 59 59 56 55 53 53 51 49 52 52 54 56 61 61 61 57 59
47 47 53 56 56 57 57 57 56 55 54 53 52 51 50 50 50 52 52 52 55 57 57 57 57 58 58 56 57 57 56 55 53 52 52 54 53 54 54 57 59 59 61
45 46 50 53 54 53 53 53 53 52 51 50 50 49 47 47 47 47 47 49 50 49 52 53 55 56 56 56 57 56 56 55 53 52 50 48 49 52 53 54 55 57 58
46 46 49 50 50 50 50 51 51 51 49 48 47 47 48 47 44 46 49 50 50 50 51 50 50 52 53 54 56 55 56 55 54 51 50 50 49 46 54 56 55 55 56
45 44 45 45 45 47 48 49 50 49 49 50 48 47 48 46 44 45 45 46 48 48 48 49 50 51 50 49 49 51 52 54 52 52 50 49 51 52 52 53 54 55 54
44 43 42 43 41 42 43 45 46 49 50 48 48 48 48 48 44 41 43 43 44 45 46 46 45 44 47 48 49 49 50 49 49 50 51 51 50 50 52 52 52 54 55
43 42 41 39 39 41 42 44 47 47 46 45 45 45 45 44 42 40 41 42 43 43 43 43 43 43 43 44 45 45 46 49 50 51 52 51 52 53 53 52 53 55 57
41 40 39 38 40 42 43 44 43 43 43 42 41 40 40 39 39 40 42 43 43 42 41 42 42 42 42 41 41 42 44 45 45 47 48 48 47 46 48 54 52 52 52
40 39 41 41 41 41 41 41 41 40 37 35 35 37 39 39 40 39 40 41 41 40 41 41 41 41 40 40 41 42 42 43 44 44 51 51 50 50 46 48 50 51 52
42 40 39 40 40 39 39 37 35 37 37 37 36 36 36 37 38 39 39 39 38 38 38 39 41 40 40 39 39 42 42 42 44 46 50 52 50 49 50 52 55 55 54
41 39 38 38 37 35 35 36 36 36 36 35 35 35 35 36 38 38 38 39 39 39 38 38 40 39 39 39 40 40 40 42 45 47 49 49 48 46 48 54 56 58 59
38 37 35 35 34 35 35 36 34 35 35 34 34 34 34 35 37 38 38 38 39 39 38 39 40 39 38 39 40 40 41 44 45 45 47 46 47 47 53 55 56 57 59
34 34 33 34 34 34 32 32 32 33 33 33 33 34 34 35 36 37 37 40 41 42 42 41 40 39 40 41 42 44 45 46 46 46 44 45 48 52 53 55 55 57 57
33 32 32 32 30 30 30 32 32 34 35 35 34 35 35 35 37 37 38 39 41 40 38 38 39 40 43 43 44 45 47 46 46 45 45 48 49 52 53 55 56 55 53
30 30 29 30 30 30 31 33 35 35 36 36 36 36 36 36 36 36 36 36 36 36 36 36 37 39 44 43 44 44 45 46 46 47 48 50 50 52 53 55 54 52 51
30 29 30 30 30 31 32 33 32 34 36 36 36 37 37 37 37 37 37 36 35 35 36 36 37 39 43 45 45 45 46 48 48 49 50 52 52 53 52 54 52 51 50
30 30 31 30 31 32 32 33 34 34 34 36 38 39 39 38 37 37 36 36 36 36 36 37 38 39 41 43 47 47 48 50 51 51 52 53 53 53 52 52 52 50 50
30 30 30 31 32 34 34 35 36 37 37 37 39 39 39 38 37 37 36 36 36 37 37 37 39 41 42 44 47 50 50 50 51 53 53 54 54 54 50 50 51 45 48
30 31 32 32 32 34 35 36 36 35 36 36 37 38 41 39 38 39 38 38 37 37 37 39 41 43 45 46 48 51 52 52 53 53 54 54 53 53 53 52 52 52 53
30 30 31 32 32 33 34 33 34 34 35 35 35 37 35 37 38 39 40 39 37 37 39 42 44 46 50 51 52 53 53 53 54 54 55 54 54 53 54 55 55 54 55
31 31 31 30 31 31 31 33 33 33 33 34 34 36 35 39 40 40 41 40 39 41 42 46 44 46 52 53 53 53 53 53 54 54 55 54 54 55 55 53 54 54 55
31 30 30 30 30 30 31 31 31 32 32 33 34 35 36 39 40 41 40 41 41 43 45 45 44 48 53 54 55 54 54 54 55 55 54 55 55 54 55 55 55 55 56
30 30 29 28 29 29 29 29 30 30 31 32 33 33 34 36 40 41 40 41 43 44 44 45 45 49 53 54 55 54 52 52 55 57 56 54 54 53 55 53 55 55 55
30 30 28 28 28 28 28 28 28 29 29 30 31 32 32 34 36 40 42 43 43 44 45 44 45 48 53 52 48 46 39 37 49 41 54 55 54 55 53 56 56 53 54
32 32 29 28 28 28 28 28 28 28 28 29 30 30 31 32 34 36 41 43 43 44 44 44 44 46 49 47 45 37 37 37 44 39 44 50 53 53 53 54 55 54 53
Lifted_Index
4 4 4 4 3 3 3 2 2 2 2 2 1 1 0 -0 -1 -2 -3 -3 -3 -3 -3 -2 -2 -2 -2 -1 -0 0 1 1 2 2 2 2 2 1 0 -0 -1 -1 -1
5 4 4 4 4 3 3 3 3 3 3 3 2 2 2 1 0 -1 -1 -2 -2 -2 -2 -2 -2 -2 -2 -1 -1 -0 0 1 1 2 2 2 2 2 1 -0 -0 -0 -0
5 5 5 5 5 4 4 4 4 4 4 4 4 4 4 3 3 2 1 1 0 -0 -1 -1 -1 -2 -2 -1 -1 -1 -1 -1 -0 0 1 2 2 2 2 1 1 0 0
6 6 6 5 6 6 5 5 5 5 5 5 5 5 4 4 4 4 4 3 3 3 2 1 0 -0 -0 -1 -1 -1 -1 -1 -1 -1 0 1 2 2 2 2 1 1 1
6 6 6 6 6 6 6 6 6 6 5 5 5 5 5 4 4 5 5 5 5 5 5 4 4 3 2 2 1 1 0 -0 -0 -0 -0 0 1 1 2 2 2 2 2
6 6 7 7 7 7 6 6 6 5 5 5 5 5 5 5 5 6 6 6 7 7 7 7 6 6 6 5 4 4 3 2 1 1 1 0 0 1 1 2 2 3 3
6 6 7 7 7 7 6 6 6 6 6 6 6 6 7 7 7 8 8 8 8 8 8 8 8 8 8 8 7 7 6 5 3 3 2 1 1 1 1 2 3 3 3
6 6 7 7 7 7 7 7 8 8 8 9 9 9 9 9 9 10 10 9 9 9 9 9 9 9 9 9 9 9 8 7 6 4 3 2 2 2 2 3 3 3 3
6 6 7 8 8 9 9 9 9 10 10 10 10 10 10 10 11 11 11 10 10 9 9 9 9 9 9 10 10 10 10 9 8 6 5 4 3 3 3 3 3 3 3
7 7 8 9 10 10 11 11 11 11 10 11 10 11 11 11 11 11 11 10 10 9 9 9 9 9 10 11 11 11 11 10 10 9 7 5 4 4 4 4 4 3 3
9 9 10 11 12 12 12 11 11 11 10 10 10 10 10 10 10 10 10 10 10 9 9 9 9 10 11 12 12 12 11 11 11 10 8 6 6 5 5 5 4 3 2
11 11 11 12 12 12 11 11 10 10 10 10 9 9 9 10 10 10 10 10 10 10 10 10 11 11 12 12 12 11 11 11 11 10 9 7 6 6 5 4 3 2 2
11 12 12 12 12 11 11 10 10 10 10 9 9 9 9 9 9 9 10 10 10 11 11 11 12 12 12 12 11 11 10 10 10 9 8 8 7 6 5 4 3 2 2
11 11 11 11 11 10 10 10 10 10 10 9 9 9 9 9 10 10 10 11 11 12 12 12 11 11 11 11 10 9 9 9 8 8 8 7 7 6 4 3 3 2 2
11 11 10 10 10 10 10 10 10 10 10 10 10 10 10 10 10 11 11 11 12 12 11 11 10 10 10 9 9 8 8 8 7 7 6 6 6 5 3 2 2 2 2
11 10 10 10 9 9 9 9 9 10 10 10 10 11 11 11 11 11 12 12 12 11 10 9 9 9 8 8 8 7 7 6 6 5 5 5 4 3 2 1 2 2 3
11 10 10 10 9 9 9 9 9 9 9 9 10 11 11 12 12 11 11 11 11 10 9 8 8 8 7 7 7 6 5 4 4 4 4 3 2 2 1 1 2 3 3
11 11 10 10 10 10 10 10 9 9 8 8 9 10 11 12 12 11 11 11 10 10 9 9 8 7 7 6 6 5 4 3 3 2 2 1 1 1 1 1 2 3 3
12 11 11 10 10 10 10 10 9 8 8 8 9 10 11 11 11 11 11 11 10 10 9 9 8 7 6 6 5 4 3 2 1 1 1 0 0 0 1 2 2 2 3
12 12 11 11 10 10 10 9 9 8 8 8 9 10 11 11 10 10 11 11 10 10 9 8 7 6 6 5 4 3 2 1 1 1 1 1 1 1 2 2 2 2 2
13 12 12 11 10 10 10 9 9 9 8 8 9 11 12 12 11 10 11 10 10 9 9 7 6 5 4 4 3 2 1 1 1 1 1 1 2 2 2 2 2 1 1
14 13 12 12 11 11 10 9 9 9 9 9 10 11 12 12 12 11 11 11 10 9 8 6 5 4 4 3 2 2 2 2 2 2 2 2 2 2 2 2 1 1 0
15 14 13 12 12 11 10 10 9 9 9 10 11 12 13 13 12 12 11 11 10 9 7 6 5 4 4 3 3 3 3 3 3 2 2 3 3 2 2 1 0 -0 -1
15 15 14 13 12 11 10 10 10 10 10 10 11 12 13 13 13 12 12 11 11 9 7 6 5 4 4 3 3 3 3 3 3 3 3 3 3 2 2 0 -1 -1 -1
16 16 15 14 13 12 11 11 10 10 10 10 11 11 12 13 13 12 12 12 11 9 7 6 5 5 4 4 4 4 4 4 3 3 3 3 2 2 0 -0 -1 -1 -1
17 17 16 15 14 13 12 11 11 10 10 10 10 11 12 12 12 13 12 11 10 9 8 7 6 5 4 4 4 4 4 4 3 3 3 2 1 0 -1 -1 -1 -1 -1